Location: Unspecified
(56.5167°N, 0.0000°E)
Time: 20:11:30
(UTC+01:00)

ISS - Visible Passes

Search period start: 31 January 2015 00:00
Search period end: 10 February 2015 00:00
Orbit: 400 x 408 km, 51.6° (Epoch: 31 January)

Date Brightness Start Highest point End Pass type
(mag) Time Alt. Az. Time Alt. Az. Time Alt. Az.
07 Feb -0.5 20:31:01 10° SSW 20:31:17 11° SSW 20:31:17 11° SSW visible
08 Feb -1.2 19:39:13 10° S 19:41:07 15° SSE 19:41:07 15° SSE visible
09 Feb -0.9 18:48:02 10° SSE 18:48:58 11° SE 18:49:59 10° SE visible
09 Feb -1.3 20:21:52 10° SW 20:23:31 21° SSW 20:23:31 21° SSW visible
